EN

Hourly Weather Amos

Today, 1 December, Tuesday

Time Temperature Precipitation Wind Pressure Humidity
00:00 -9°C° 0.1 mm 6 mps 727 mmHg 91%
01:00 -9°C° 0.1 mm 6 mps 726 mmHg 92%
02:00 -9°C° 0.2 mm 6 mps 726 mmHg 91%
03:00 -9°C° 0.2 mm 6 mps 726 mmHg 90%
04:00 -9°C° 0.2 mm 6 mps 725 mmHg 89%
05:00 -9°C° 0 mm 6 mps 726 mmHg 89%
06:00 -9°C° 0 mm 6 mps 726 mmHg 90%
07:00 -9°C° 0 mm 6 mps 726 mmHg 90%
08:00 -9°C° 0 mm 6 mps 726 mmHg 90%
09:00 -8°C° 0 mm 6 mps 725 mmHg 90%
10:00 -8°C° 0 mm 6 mps 725 mmHg 90%
11:00 -8°C° 0 mm 6 mps 725 mmHg 89%
12:00 -7°C° 0 mm 7 mps 724 mmHg 89%
13:00 -7°C° 0 mm 7 mps 724 mmHg 88%
14:00 -7°C° 0.1 mm 7 mps 724 mmHg 89%
15:00 -7°C° 0.1 mm 7 mps 723 mmHg 89%
16:00 -7°C° 0.1 mm 7 mps 723 mmHg 90%
17:00 -7°C° 1 mm 8 mps 723 mmHg 90%
18:00 -7°C° 1 mm 8 mps 723 mmHg 91%
19:00 -7°C° 1 mm 8 mps 722 mmHg 91%
20:00 -7°C° 1.9 mm 8 mps 722 mmHg 92%
21:00 -7°C° 1.9 mm 8 mps 721 mmHg 93%
22:00 -7°C° 1.9 mm 7 mps 721 mmHg 94%
23:00 -7°C° 2 mm 7 mps 720 mmHg 94%

Tomorrow, 2 December, Wednesday

Time Temperature Precipitation Wind Pressure Humidity
00:00 -8°C° 2 mm 6 mps 720 mmHg 94%
01:00 -7°C° 2 mm 5 mps 720 mmHg 94%
02:00 -8°C° 1.7 mm 5 mps 720 mmHg 94%
03:00 -8°C° 1.7 mm 5 mps 720 mmHg 94%
04:00 -10°C° 1.7 mm 5 mps 720 mmHg 94%
05:00 -10°C° 1 mm 5 mps 721 mmHg 94%
06:00 -10°C° 1 mm 5 mps 721 mmHg 94%
07:00 -11°C° 1 mm 5 mps 722 mmHg 94%
08:00 -10°C° 0.9 mm 4 mps 722 mmHg 94%
09:00 -9°C° 0.9 mm 4 mps 723 mmHg 94%
10:00 -9°C° 0.9 mm 4 mps 724 mmHg 94%
11:00 -9°C° 0.7 mm 4 mps 724 mmHg 94%
12:00 -8°C° 0.7 mm 4 mps 724 mmHg 94%
13:00 -7°C° 0.7 mm 4 mps 725 mmHg 94%
14:00 -7°C° 0.4 mm 4 mps 725 mmHg 94%
15:00 -7°C° 0.4 mm 4 mps 726 mmHg 94%
16:00 -7°C° 0.4 mm 4 mps 726 mmHg 94%
17:00 -8°C° 0.3 mm 4 mps 727 mmHg 93%
18:00 -8°C° 0.3 mm 4 mps 727 mmHg 93%
19:00 -10°C° 0.3 mm 5 mps 727 mmHg 92%
20:00 -10°C° 0.1 mm 5 mps 728 mmHg 92%
21:00 -10°C° 0.1 mm 4 mps 728 mmHg 91%
22:00 -11°C° 0.1 mm 4 mps 728 mmHg 91%
23:00 -12°C° 0 mm 4 mps 728 mmHg 91%

Day after tomorrow, 3 December, Thursday

Time Temperature Precipitation Wind Pressure Humidity
00:00 -13°C° 0 mm 3 mps 728 mmHg 91%
01:00 -14°C° 0 mm 3 mps 728 mmHg 91%
02:00 -14°C° 0 mm 3 mps 729 mmHg 92%
03:00 -14°C° 0 mm 3 mps 729 mmHg 93%
04:00 -15°C° 0 mm 3 mps 729 mmHg 93%
05:00 -14°C° 0 mm 2 mps 729 mmHg 94%
06:00 -14°C° 0 mm 2 mps 729 mmHg 95%
07:00 -14°C° 0 mm 2 mps 729 mmHg 96%
08:00 -13°C° 0 mm 2 mps 730 mmHg 96%
09:00 -12°C° 0 mm 2 mps 730 mmHg 95%
10:00 -9°C° 0 mm 2 mps 730 mmHg 94%
11:00 -8°C° 0 mm 2 mps 730 mmHg 93%
12:00 -7°C° 0 mm 2 mps 729 mmHg 92%
13:00 -7°C° 0 mm 3 mps 729 mmHg 91%
14:00 -6°C° 0.1 mm 2 mps 729 mmHg 92%
15:00 -6°C° 0.1 mm 2 mps 729 mmHg 93%
16:00 -6°C° 0.1 mm 2 mps 728 mmHg 94%
17:00 -6°C° 0.1 mm 2 mps 728 mmHg 94%
18:00 -6°C° 0.1 mm 2 mps 728 mmHg 95%
19:00 -6°C° 0.1 mm 2 mps 728 mmHg 96%
20:00 -6°C° 0.2 mm 2 mps 728 mmHg 96%
21:00 -6°C° 0.2 mm 2 mps 728 mmHg 96%
22:00 -6°C° 0.2 mm 2 mps 727 mmHg 96%
23:00 -6°C° 0.2 mm 2 mps 727 mmHg 96%

4 December, Friday

Time Temperature Precipitation Wind Pressure Humidity
00:00 -6°C° 0.2 mm 2 mps 727 mmHg 96%
01:00 -6°C° 0.2 mm 2 mps 727 mmHg 96%
02:00 -4°C° 0.2 mm 1 mps 727 mmHg 96%
03:00 -4°C° 0.2 mm 1 mps 727 mmHg 97%
04:00 -4°C° 0.2 mm 1 mps 727 mmHg 97%
05:00 -6°C° 0.1 mm 1 mps 727 mmHg 97%
06:00 -7°C° 0.1 mm 1 mps 727 mmHg 97%
07:00 -8°C° 0.1 mm 1 mps 727 mmHg 97%
08:00 -8°C° 0 mm 1 mps 727 mmHg 96%
09:00 -8°C° 0 mm 1 mps 727 mmHg 96%
10:00 -8°C° 0 mm 1 mps 728 mmHg 95%
11:00 -7°C° 0 mm 1 mps 728 mmHg 93%
12:00 -6°C° 0 mm 1 mps 728 mmHg 91%
13:00 -6°C° 0 mm 1 mps 728 mmHg 89%
14:00 -6°C° 0 mm 1 mps 728 mmHg 91%
15:00 -6°C° 0 mm 1 mps 729 mmHg 92%
16:00 -7°C° 0 mm 1 mps 729 mmHg 94%
17:00 -8°C° 0 mm 1 mps 729 mmHg 95%
18:00 -8°C° 0 mm 1 mps 730 mmHg 95%
19:00 -9°C° 0 mm 1 mps 730 mmHg 96%
20:00 -10°C° 0 mm 1 mps 731 mmHg 96%
21:00 -11°C° 0 mm 1 mps 731 mmHg 96%
22:00 -12°C° 0 mm 1 mps 731 mmHg 97%
23:00 -13°C° 0 mm 1 mps 732 mmHg 97%

5 December, Saturday

Time Temperature Precipitation Wind Pressure Humidity
00:00 -14°C° 0 mm 1 mps 732 mmHg 97%
01:00 -15°C° 0 mm 1 mps 732 mmHg 97%
02:00 -15°C° 0 mm 1 mps 732 mmHg 97%
03:00 -16°C° 0 mm 0 mps 733 mmHg 97%
04:00 -16°C° 0 mm 0 mps 733 mmHg 97%
05:00 -16°C° 0 mm 0 mps 733 mmHg 97%
06:00 -16°C° 0 mm 1 mps 733 mmHg 97%
07:00 -16°C° 0 mm 1 mps 734 mmHg 96%
08:00 -15°C° 0 mm 1 mps 734 mmHg 96%
09:00 -13°C° 0 mm 1 mps 734 mmHg 95%
10:00 -12°C° 0 mm 1 mps 734 mmHg 94%
11:00 -10°C° 0 mm 1 mps 734 mmHg 94%
12:00 -10°C° 0 mm 2 mps 733 mmHg 93%
13:00 -8°C° 0 mm 2 mps 733 mmHg 92%
14:00 -9°C° 0 mm 2 mps 733 mmHg 93%
15:00 -9°C° 0 mm 2 mps 732 mmHg 94%
16:00 -9°C° 0 mm 2 mps 732 mmHg 95%
17:00 -10°C° 0 mm 2 mps 732 mmHg 95%
18:00 -10°C° 0 mm 2 mps 732 mmHg 95%
19:00 -12°C° 0 mm 2 mps 731 mmHg 95%
20:00 -12°C° 0 mm 2 mps 731 mmHg 95%
21:00 -12°C° 0 mm 2 mps 731 mmHg 95%
22:00 -12°C° 0 mm 2 mps 730 mmHg 95%
23:00 -10°C° 0 mm 2 mps 730 mmHg 95%

6 December, Sunday

Time Temperature Precipitation Wind Pressure Humidity
00:00 -10°C° 0 mm 2 mps 729 mmHg 95%
01:00 -10°C° 0 mm 2 mps 729 mmHg 95%
02:00 -10°C° 0 mm 2 mps 728 mmHg 95%
03:00 -9°C° 0 mm 2 mps 728 mmHg 95%
04:00 -9°C° 0 mm 2 mps 728 mmHg 95%
05:00 -9°C° 0.1 mm 2 mps 727 mmHg 96%
06:00 -8°C° 0.1 mm 2 mps 727 mmHg 96%
07:00 -7°C° 0.1 mm 1 mps 727 mmHg 96%
08:00 -6°C° 0.3 mm 1 mps 727 mmHg 96%
09:00 -4°C° 0.3 mm 1 mps 727 mmHg 96%
10:00 -5°C° 0.3 mm 0 mps 727 mmHg 96%
11:00 -4°C° 0.3 mm 0 mps 727 mmHg 95%
12:00 -3°C° 0.3 mm 0 mps 727 mmHg 95%
13:00 -3°C° 0.3 mm 0 mps 727 mmHg 95%
14:00 -2°C° 0.1 mm 1 mps 727 mmHg 95%
15:00 -2°C° 0.1 mm 1 mps 727 mmHg 96%
16:00 -4°C° 0.1 mm 2 mps 728 mmHg 96%
17:00 -5°C° 0 mm 2 mps 728 mmHg 95%
18:00 -7°C° 0 mm 3 mps 728 mmHg 95%
19:00 -8°C° 0 mm 3 mps 729 mmHg 94%
20:00 -8°C° 0 mm 3 mps 729 mmHg 94%
21:00 -9°C° 0 mm 3 mps 729 mmHg 94%
22:00 -10°C° 0 mm 3 mps 730 mmHg 94%
23:00 -10°C° 0 mm 3 mps 730 mmHg 94%
Show more

We Need Your Consent

Meteoprog and our Service Providers may store and access personal data such as cookies, device identifiers or other similar technologies on your device and process such data to personalise content and ads, as well as provide social media features and to analyse the traffic.

  • Store and/or access information on your device

    Cookies, device identifiers or other information can be stored or accessed on your device for the purposes indicated above.

  • Personalised ads and content, ad and content measurement, audience insights, and products development

    Ads and content can be personalised based on a profile. More data can be added to better personalise ads and content. Ad and content performance can be measured. Insights about the audience who saw the ads and content can be derived. Such data can be used to develop or improve user’s experience, systems and software.

By clicking ‘I Agree’ you will allow the use of indicated cookies, device identifiers, web beacons or other similar technologies. Your settings can be changed in the browser on your device.

For certain purposes, legitimate interests may be relied on, rather than consent. You can read more about this in our Privacy and Cookie Policy.